Wind_Speed
21 21 22 24 25 25 26 28 30 30 32 33 33 34 35 38 39 40 42 43 44 44 46 47 49 50 51 51 52 52 52 51 50 50 50 50 50 49 49 48 47 47 47 47
20 21 21 22 24 26 27 28 29 30 31 31 32 33 34 36 38 40 40 42 42 43 44 46 47 49 50 51 51 52 52 52 51 51 50 50 50 50 49 48 48 48 47 47
20 21 21 22 21 22 26 27 28 30 30 31 32 32 34 35 36 37 38 39 42 43 44 44 46 48 49 51 51 52 52 52 52 51 51 51 50 50 49 49 48 48 47 47
19 20 21 20 20 20 23 25 27 29 30 30 31 32 33 34 36 37 38 39 40 42 44 45 46 46 48 50 51 51 52 52 51 51 52 52 51 51 50 49 49 49 49 48
17 17 18 18 18 19 21 23 25 27 29 30 31 31 32 34 34 36 38 39 40 42 43 44 46 48 49 49 50 50 51 51 51 51 51 51 51 51 51 51 51 50 50 50
15 15 15 16 17 18 20 21 23 25 26 28 29 30 30 32 34 35 36 38 39 41 42 44 45 47 48 48 49 49 50 50 51 50 51 51 51 51 51 51 51 51 51 51
14 15 15 15 16 17 18 19 21 23 24 25 27 28 29 30 32 33 34 35 36 38 39 42 44 45 46 46 47 48 49 50 50 50 51 51 51 51 51 50 50 50 50 50
13 14 14 14 16 17 17 18 20 22 23 24 25 25 26 28 29 30 33 33 34 34 35 36 39 42 44 45 45 46 46 47 48 49 50 50 50 51 50 50 49 50 49 49
14 13 14 14 16 17 18 19 19 21 22 23 23 24 25 26 27 29 31 33 33 33 33 34 36 38 41 43 44 44 45 46 47 48 48 48 48 49 49 49 48 48 48 48
14 14 15 15 16 17 18 19 20 21 22 23 23 23 24 25 26 27 28 31 32 33 34 34 35 37 39 40 42 43 44 45 45 46 46 47 47 47 47 47 47 47 47 46
15 15 15 15 16 17 17 18 19 20 21 22 22 23 23 24 25 26 27 29 30 31 32 33 33 35 37 38 39 40 42 43 43 44 44 44 45 45 45 46 46 46 46 46
16 16 16 16 17 17 17 17 18 18 19 20 21 21 22 22 23 23 24 26 28 29 30 31 32 33 34 35 37 38 39 39 40 41 41 42 43 43 43 44 44 45 45 45
16 16 17 18 18 18 18 18 18 18 18 18 19 20 21 21 22 23 24 24 25 27 28 29 30 31 31 32 34 36 37 38 38 39 40 40 40 40 40 41 42 42 42 42
17 17 17 18 18 18 18 18 18 18 18 19 19 20 21 21 21 22 22 23 24 25 28 28 29 30 30 31 32 34 35 36 37 38 38 38 39 40 40 40 39 40 41 41
17 17 17 17 18 18 18 18 18 18 18 19 19 20 21 21 22 21 22 22 23 24 25 27 28 29 30 31 32 33 33 35 36 36 36 37 38 38 39 39 39 39 40 40
17 17 17 17 17 18 18 19 19 19 19 19 20 20 20 21 21 22 22 22 22 23 24 25 27 29 29 30 31 32 34 34 35 36 37 37 37 38 38 38 37 37 38 39
17 17 17 18 18 18 19 20 20 20 20 20 20 20 19 19 20 21 21 22 22 22 22 23 25 27 28 29 30 31 32 33 34 35 36 37 38 38 38 37 37 37 37 38
18 18 18 18 18 19 19 19 20 20 20 20 20 20 19 20 20 20 20 21 21 21 21 22 23 24 25 27 28 29 30 31 32 33 34 35 36 37 37 36 36 36 36 36
19 19 19 19 19 19 19 19 19 19 19 19 20 20 20 20 20 20 20 20 21 21 22 22 23 24 25 26 27 28 28 29 30 31 32 33 34 35 35 35 35 35 35 36
20 20 20 20 20 19 19 19 19 19 19 19 19 19 19 19 19 20 20 20 20 21 21 22 23 24 25 25 26 27 28 28 29 30 31 31 32 33 33 33 34 34 34 35
21 21 21 20 20 19 19 19 19 19 19 18 18 18 18 19 19 19 19 19 20 20 20 21 22 23 24 25 26 26 27 28 29 29 30 31 32 32 33 33 33 33 33 34
22 21 21 21 20 20 20 19 19 19 18 18 18 18 18 18 18 18 19 19 19 19 19 20 21 21 23 24 24 25 26 27 28 28 29 29 30 31 32 33 33 33 34 34
22 22 22 21 21 20 20 20 19 18 18 18 18 18 18 17 17 17 18 18 18 18 19 19 20 21 21 22 23 24 24 25 26 27 28 28 29 30 31 32 32 33 33 33
22 22 22 21 21 20 20 19 19 18 17 17 18 18 18 17 17 17 17 16 17 17 18 18 19 20 21 22 23 23 24 24 25 25 26 27 28 28 29 30 30 31 31 31
22 22 21 21 20 20 20 19 18 18 17 17 17 17 17 17 17 16 16 16 16 17 17 17 18 19 20 21 22 23 24 24 24 24 24 25 26 26 27 28 28 29 29 30
21 21 21 20 20 20 19 19 18 18 17 17 17 17 17 17 17 16 16 16 16 16 17 17 18 18 19 20 21 22 23 24 24 24 24 25 25 25 26 26 27 27 28 29
21 21 21 20 20 19 19 18 18 18 17 17 17 17 17 17 16 16 15 15 15 16 16 16 17 18 18 19 20 21 22 23 23 24 23 24 24 24 24 25 25 26 26 27
Wind_Direction
277 271 267 262 255 250 250 250 247 246 246 244 244 244 243 242 240 238 237 238 238 237 236 236 235 235 236 237 238 239 240 241 242 242 243 244 245 246 247 248 249 250 251 252
275 272 270 266 259 253 252 252 249 248 247 245 243 243 242 240 238 237 238 237 237 237 236 236 236 235 235 237 238 239 240 241 241 242 243 244 245 245 247 248 249 250 251 253
276 273 270 267 263 257 252 252 251 250 249 247 243 243 242 240 239 238 238 237 236 236 236 237 236 236 236 236 238 239 240 241 242 243 243 243 244 245 247 248 249 250 251 252
280 276 271 268 264 260 255 253 251 251 250 250 247 245 245 243 241 239 237 236 236 236 236 237 237 238 237 237 237 238 239 240 241 242 243 244 245 246 247 248 249 250 251 252
281 277 274 268 265 262 258 254 252 253 253 252 250 248 247 245 243 242 241 239 238 238 238 239 239 239 239 239 239 239 239 240 241 242 244 244 245 246 247 248 249 250 252 252
284 278 273 269 266 265 261 257 255 255 255 255 251 249 248 247 247 245 244 243 241 240 240 240 240 241 241 240 240 240 240 241 241 242 244 244 245 246 247 247 249 250 252 253
285 280 276 272 269 266 264 260 257 257 258 257 255 253 251 251 250 248 245 244 243 242 241 241 241 241 241 240 240 240 241 242 242 243 244 244 244 245 246 247 249 250 252 253
293 287 282 276 274 273 272 267 263 261 260 259 258 258 256 255 253 249 247 246 245 243 243 243 243 243 242 242 241 241 241 242 243 243 244 245 245 245 246 248 249 250 251 252
297 291 287 282 278 277 275 272 269 266 264 262 261 261 260 259 256 252 249 248 247 245 245 245 245 244 244 242 242 242 242 243 243 243 244 245 245 245 246 247 248 249 250 251
299 295 291 288 283 281 279 276 272 268 265 264 264 264 263 262 258 254 252 251 249 248 248 248 247 245 245 243 243 243 243 242 243 244 245 245 245 245 246 247 248 249 250 251
299 295 292 290 288 284 281 278 275 272 267 264 264 264 263 263 261 258 254 252 249 248 248 248 249 248 246 244 244 243 242 241 242 243 243 244 245 246 247 248 249 249 250 252
300 296 293 293 291 289 287 285 281 277 273 270 267 265 263 262 262 260 257 253 251 250 250 250 249 249 248 246 243 241 241 240 240 241 241 242 244 246 246 248 249 250 251 252
301 297 295 294 294 292 291 289 286 283 279 275 272 270 267 265 264 261 258 257 253 251 250 251 251 249 248 245 243 241 239 239 240 240 241 242 244 245 246 247 248 250 252 253
304 300 297 295 293 293 293 291 287 284 281 278 277 275 273 271 268 264 260 258 257 254 252 251 251 250 247 244 243 242 240 240 240 240 241 242 244 245 246 247 248 249 251 252
308 303 299 297 294 293 293 291 288 286 283 281 279 277 274 272 269 266 263 262 260 258 254 252 251 249 247 245 243 242 242 242 242 241 241 243 244 245 247 248 249 250 252 253
310 307 303 300 296 294 292 291 291 289 287 283 280 278 276 273 270 268 265 263 263 261 257 253 250 248 246 245 244 244 243 243 242 242 242 244 245 246 247 249 250 251 253 254
311 309 307 304 299 297 295 293 292 290 288 285 282 279 276 274 271 268 264 264 264 263 259 254 250 247 246 246 246 246 245 245 244 245 245 245 247 248 249 250 251 252 254 255
312 310 309 306 302 300 298 296 293 290 287 285 282 279 277 275 271 269 267 265 263 263 260 257 252 249 248 247 247 247 248 248 248 248 248 248 249 250 250 250 251 252 253 254
312 312 311 308 305 302 299 296 294 292 289 285 283 280 277 276 272 270 269 267 265 263 261 258 255 253 251 250 248 248 248 248 249 249 249 250 250 250 250 250 251 252 253 254
310 311 311 310 308 305 302 297 294 292 290 288 285 282 279 276 274 273 271 269 267 265 261 258 256 254 253 251 250 249 248 249 249 250 250 249 249 249 249 251 252 253 253 255
308 309 310 310 309 307 304 300 297 294 291 290 288 286 282 279 277 275 273 272 270 267 265 261 258 256 254 252 251 251 250 250 251 251 251 251 251 250 251 252 253 253 253 255
307 308 308 308 308 307 305 303 300 296 292 290 289 289 285 282 280 278 277 275 272 268 266 265 263 260 257 254 254 253 253 253 252 252 252 252 252 252 252 253 253 254 254 255
307 307 307 307 307 306 305 303 301 298 295 292 290 288 285 284 282 281 279 276 272 268 266 266 265 262 259 257 257 256 256 255 254 253 253 253 254 253 253 253 254 254 255 256
306 306 306 306 306 305 305 304 303 300 297 294 292 290 287 286 285 283 281 277 273 270 268 267 266 265 263 262 260 259 258 257 256 255 255 254 254 254 254 254 255 255 255 256
308 307 306 306 305 304 304 303 303 302 300 297 294 291 290 288 286 283 281 277 275 274 272 269 268 268 267 265 263 261 259 258 258 257 257 256 256 256 256 256 256 256 256 256
311 309 307 306 305 304 303 302 301 300 300 299 297 294 292 290 286 283 280 278 277 277 276 274 273 272 270 267 265 263 261 260 259 259 259 259 258 258 257 257 256 256 256 257
311 310 308 306 305 303 302 301 301 300 299 298 297 296 293 290 286 283 280 279 278 278 278 277 277 276 274 271 268 266 264 261 260 259 259 259 259 258 258 258 258 258 258 258
Height
5493 5492 5492 5492 5494 5495 5497 5498 5500 5502 5505 5508 5510 5513 5517 5521 5525 5530 5534 5539 5544 5550 5555 5560 5566 5571 5576 5582 5588 5593 5598 5603 5608 5612 5617 5621 5625 5629 5633 5637 5640 5644 5646 5649
5488 5487 5487 5487 5488 5489 5490 5491 5493 5495 5498 5500 5503 5506 5508 5512 5515 5520 5524 5529 5534 5539 5544 5549 5554 5559 5565 5570 5576 5581 5586 5591 5596 5601 5605 5609 5614 5618 5622 5625 5629 5632 5635 5638
5482 5482 5481 5481 5482 5483 5484 5484 5486 5488 5491 5492 5495 5497 5500 5503 5506 5510 5514 5519 5524 5528 5533 5538 5543 5548 5553 5558 5563 5569 5574 5579 5584 5588 5593 5597 5602 5606 5610 5614 5617 5620 5623 5626
5477 5477 5476 5479 5477 5477 5478 5478 5479 5481 5482 5484 5487 5489 5491 5494 5497 5501 5505 5509 5513 5518 5523 5527 5532 5537 5542 5547 5552 5557 5562 5567 5572 5576 5581 5585 5590 5594 5598 5601 5605 5608 5611 5614
5472 5471 5471 5472 5472 5472 5472 5473 5473 5474 5476 5477 5479 5481 5484 5486 5488 5492 5495 5499 5503 5507 5512 5516 5521 5525 5530 5535 5540 5545 5550 5555 5559 5564 5568 5573 5577 5581 5585 5589 5592 5596 5599 5602
5468 5467 5467 5469 5468 5467 5468 5468 5468 5468 5469 5470 5472 5474 5477 5478 5480 5482 5486 5489 5493 5497 5501 5505 5509 5513 5518 5523 5528 5533 5538 5543 5547 5552 5556 5560 5564 5569 5573 5576 5580 5583 5586 5589
5465 5464 5464 5464 5463 5464 5465 5464 5463 5463 5463 5464 5465 5467 5469 5470 5471 5474 5477 5480 5483 5486 5490 5493 5497 5501 5506 5511 5516 5521 5525 5530 5535 5539 5543 5547 5551 5556 5560 5563 5567 5570 5574 5576
5462 5461 5463 5460 5459 5459 5459 5458 5457 5457 5458 5458 5459 5460 5461 5462 5463 5465 5468 5471 5473 5477 5480 5483 5487 5490 5495 5499 5504 5508 5513 5518 5522 5526 5530 5534 5539 5543 5547 5550 5554 5557 5560 5563
5460 5460 5457 5456 5455 5454 5453 5452 5452 5452 5452 5452 5453 5454 5454 5455 5456 5458 5460 5462 5465 5467 5471 5474 5476 5480 5484 5488 5492 5496 5501 5506 5510 5514 5518 5522 5526 5530 5534 5538 5541 5544 5547 5550
5456 5456 5454 5452 5450 5449 5448 5447 5447 5446 5446 5446 5447 5447 5448 5449 5449 5450 5452 5454 5456 5459 5461 5464 5467 5470 5473 5476 5481 5485 5489 5493 5497 5502 5506 5510 5514 5518 5522 5525 5528 5532 5535 5538
5453 5452 5450 5448 5446 5445 5443 5442 5441 5441 5440 5440 5440 5441 5441 5442 5442 5443 5444 5445 5448 5450 5453 5455 5457 5460 5463 5466 5470 5474 5478 5482 5486 5490 5494 5498 5502 5506 5509 5513 5516 5519 5522 5525
5449 5447 5446 5444 5442 5440 5439 5437 5436 5435 5435 5434 5434 5434 5435 5435 5435 5436 5437 5438 5440 5442 5444 5446 5448 5451 5453 5456 5459 5463 5467 5471 5475 5479 5483 5487 5491 5494 5497 5501 5504 5506 5509 5512
5445 5443 5441 5440 5438 5436 5434 5433 5432 5431 5430 5429 5429 5428 5428 5429 5429 5429 5430 5431 5432 5434 5436 5438 5440 5442 5444 5447 5450 5453 5457 5461 5464 5468 5472 5476 5479 5483 5486 5489 5491 5494 5497 5499
5441 5439 5437 5436 5434 5432 5430 5428 5427 5426 5425 5424 5423 5423 5422 5422 5422 5422 5423 5424 5425 5426 5428 5429 5431 5434 5436 5439 5441 5444 5448 5451 5455 5458 5462 5465 5468 5471 5474 5477 5480 5483 5485 5487
5437 5435 5433 5431 5429 5427 5425 5424 5422 5421 5420 5419 5418 5417 5416 5416 5416 5416 5416 5417 5418 5419 5420 5421 5423 5425 5428 5430 5433 5436 5439 5442 5445 5448 5452 5455 5457 5460 5463 5466 5469 5471 5473 5476
5433 5430 5428 5426 5424 5422 5421 5419 5417 5416 5414 5413 5412 5411 5410 5410 5410 5409 5410 5410 5411 5412 5413 5414 5415 5417 5420 5422 5424 5427 5429 5432 5435 5438 5441 5444 5447 5450 5453 5455 5457 5460 5462 5464
5429 5427 5424 5422 5420 5417 5415 5414 5412 5410 5409 5407 5406 5405 5404 5404 5404 5403 5403 5404 5404 5405 5405 5406 5408 5409 5411 5414 5416 5418 5420 5423 5425 5428 5431 5434 5436 5439 5442 5444 5447 5449 5451 5452
5425 5422 5420 5417 5415 5413 5410 5408 5406 5405 5403 5402 5400 5399 5399 5398 5398 5398 5397 5397 5398 5398 5399 5399 5401 5402 5403 5405 5408 5410 5412 5414 5416 5419 5421 5424 5426 5429 5431 5434 5436 5438 5440 5441
5421 5418 5415 5412 5410 5408 5405 5403 5401 5399 5397 5396 5395 5394 5393 5392 5392 5392 5391 5391 5391 5392 5392 5392 5393 5394 5396 5397 5399 5401 5403 5405 5407 5409 5411 5414 5416 5418 5421 5423 5425 5427 5429 5431
5416 5414 5411 5408 5405 5402 5400 5398 5396 5394 5392 5391 5389 5388 5387 5387 5386 5386 5385 5385 5385 5385 5385 5385 5386 5387 5388 5390 5391 5393 5395 5396 5398 5400 5402 5404 5406 5408 5410 5413 5415 5416 5418 5420
5412 5409 5406 5403 5400 5398 5395 5393 5391 5389 5387 5385 5384 5383 5382 5381 5380 5379 5379 5379 5378 5378 5378 5378 5379 5380 5381 5382 5383 5385 5386 5388 5390 5391 5393 5395 5397 5399 5401 5402 5404 5406 5408 5409
5407 5404 5401 5398 5395 5393 5390 5388 5386 5384 5382 5380 5379 5377 5376 5375 5374 5373 5373 5372 5372 5372 5372 5372 5372 5373 5373 5374 5376 5377 5378 5379 5381 5382 5384 5385 5387 5389 5391 5392 5394 5396 5397 5399
5401 5398 5396 5393 5390 5388 5385 5383 5380 5378 5377 5375 5374 5372 5371 5370 5369 5368 5367 5366 5366 5366 5366 5366 5366 5366 5367 5368 5368 5369 5370 5371 5372 5374 5375 5376 5378 5379 5381 5382 5384 5386 5387 5389
5395 5393 5390 5387 5385 5382 5380 5378 5375 5373 5371 5370 5368 5367 5366 5364 5363 5362 5361 5361 5360 5360 5360 5359 5359 5360 5360 5361 5361 5362 5363 5364 5364 5365 5366 5368 5369 5370 5371 5373 5374 5375 5377 5379
5390 5387 5384 5382 5379 5377 5375 5373 5370 5368 5366 5365 5363 5362 5360 5359 5358 5357 5356 5355 5355 5354 5354 5354 5353 5353 5353 5354 5354 5355 5355 5356 5357 5358 5358 5359 5360 5361 5362 5363 5365 5366 5367 5369
5384 5381 5379 5376 5374 5372 5370 5367 5365 5364 5362 5360 5358 5357 5355 5354 5353 5352 5351 5350 5349 5349 5348 5348 5347 5347 5347 5347 5347 5347 5347 5348 5349 5349 5350 5351 5352 5353 5354 5354 5355 5357 5358 5359
5378 5375 5373 5371 5368 5366 5364 5362 5360 5358 5357 5355 5353 5352 5350 5349 5347 5347 5346 5345 5344 5344 5343 5342 5342 5341 5340 5340 5340 5340 5340 5340 5341 5341 5342 5343 5344 5344 5345 5346 5347 5348 5349 5350